FW6711 Weather Reports


time (UTC)temp
F
wind
direction
speed
knots
gust
knots
rain 1hr
in
rain 24hr
in
rain mn
in
humidity
%
barometer
mb
20210920051535 70 275 0.0 0.0 0.00 0.13 0.00 98 974.4
20210920050059 70 275 0.0 0.0 0.00 0.13 0.00 98 974.5
20210920044646 70 275 0.0 0.0 0.00 0.13 0.00 98 974.7
20210920043102 70 275 0.0 0.0 0.00 0.13 0.00 98 974.6
20210920041540 70 275 0.0 0.0 0.00 0.13 0.00 98 974.7
20210920040029 70 275 0.0 0.0 0.00 0.13 0.00 97 974.8
20210920034557 70 275 0.0 0.0 0.00 0.13 0.13 97 974.6
20210920033023 70 275 0.0 0.0 0.00 0.13 0.13 97 974.7
20210920031521 70 275 0.0 0.0 0.00 0.13 0.13 97 974.7
20210920030034 70 275 0.0 0.0 0.00 0.13 0.13 97 974.8
20210920024532 71 275 0.0 0.0 0.00 0.13 0.13 97 974.8
20210920023026 70 275 0.0 0.0 0.00 0.13 0.13 97 974.7
20210920021522 71 275 0.0 0.0 0.00 0.13 0.13 97 974.7
20210920020019 71 159 0.0 0.0 0.00 0.13 0.13 97 974.6
20210920014524 71 159 0.0 0.0 0.00 0.13 0.13 97 974.6
20210920013057 71 156 0.0 0.0 0.00 0.13 0.13 96 974.3
20210920011520 71 156 0.0 0.0 0.00 0.13 0.13 96 974.1
20210920010051 71 156 0.0 0.0 0.00 0.13 0.13 96 973.8
20210920004601 72 156 0.0 0.0 0.00 0.13 0.13 95 973.7
20210920003025 72 156 0.0 0.0 0.00 0.13 0.13 95 973.5
20210920001550 72 156 0.0 0.0 0.00 0.13 0.13 94 973.6
20210920000025 73 156 0.0 0.0 0.00 0.13 0.13 93 973.5
20210919234528 74 156 0.0 0.0 0.00 0.13 0.13 92 973.5
20210919233025 75 156 0.0 0.0 0.00 0.13 0.13 91 973.5
20210919231547 76 163 0.0 0.0 0.00 0.13 0.13 90 973.4
20210919230017 76 163 0.0 0.0 0.00 0.13 0.13 89 973.4
20210919224517 76 163 0.0 0.9 0.00 0.13 0.13 88 973.4
20210919223030 77 76 0.0 1.7 0.00 0.13 0.13 88 973.4
20210919221541 77 98 0.0 0.9 0.00 0.13 0.13 86 973.3
20210919220027 78 118 0.0 3.5 0.00 0.13 0.13 84 973.1
20210919214521 78 80 0.0 2.6 0.00 0.13 0.13 85 973.1
20210919213015 78 130 0.0 2.6 0.00 0.13 0.13 83 973.0
20210919211543 79 138 0.0 2.6 0.00 0.13 0.13 83 973.1
20210919210010 79 142 0.0 2.6 0.00 0.13 0.13 81 973.0
20210919204509 80 117 0.0 3.5 0.00 0.13 0.13 80 973.0
20210919203007 80 173 0.0 4.3 0.00 0.13 0.13 82 973.1
20210919201515 79 306 0.0 2.6 0.00 0.13 0.13 80 973.1
20210919200004 80 143 0.0 6.1 0.00 0.13 0.13 80 973.2
20210919194505 79 293 0.0 3.5 0.00 0.13 0.13 81 973.4
20210919193128 80 167 0.0 4.3 0.00 0.13 0.13 83 973.5
20210919191714 79 122 0.9 4.3 0.00 0.13 0.13 84 973.8
20210919190129 79 234 0.0 3.5 0.00 0.13 0.13 82 974.0
20210919184555 79 138 0.9 4.3 0.00 0.13 0.13 83 974.2
20210919183146 79 239 0.0 4.3 0.00 0.13 0.13 82 974.4
20210919181754 79 251 0.0 2.6 0.00 0.13 0.13 83 974.6
20210919180133 79 90 0.0 2.6 0.00 0.13 0.13 82 974.8
20210919174657 79 71 0.0 2.6 0.00 0.13 0.13 83 974.9
20210919173136 80 83 0.9 4.3 0.00 0.13 0.13 81 975.1
20210919171611 78 252 0.0 3.5 0.00 0.13 0.13 87 975.2
20210919170203 77 349 0.0 0.9 0.00 0.13 0.13 89 975.5
20210919164556 76 107 0.0 0.0 0.00 0.13 0.13 91 975.7
20210919163111 76 138 0.0 0.9 0.00 0.13 0.13 94 975.7
20210919161634 75 167 0.0 0.0 0.00 0.13 0.13 95 975.9
20210919160207 74 167 0.0 0.0 0.04 0.13 0.13 95 976.0
20210919154602 74 167 0.0 0.0 0.13 0.13 0.13 95 976.1
20210919153103 73 167 0.0 0.0 0.13 0.13 0.13 94 976.1
20210919151637 73 167 0.0 0.0 0.13 0.13 0.13 92 976.0
20210919150042 74 144 0.0 3.5 0.09 0.09 0.09 88 976.0
20210919144538 76 319 0.0 2.6 0.00 0.00 0.00 85 975.8
20210919143115 76 130 0.0 0.0 0.00 0.00 0.00 86 975.7
20210919141530 75 259 0.0 4.3 0.00 0.00 0.00 86 975.7
20210919140037 74 28 0.0 1.7 0.00 0.00 0.00 89 975.4
20210919134528 73 134 0.0 0.0 0.00 0.00 0.00 90 975.4
20210919133033 72 158 0.0 0.0 0.00 0.00 0.00 91 975.3
20210919131518 72 90 0.0 0.9 0.00 0.00 0.00 91 975.2
20210919130008 72 136 0.0 1.7 0.00 0.00 0.00 92 975.1
20210919124509 71 132 0.0 0.9 0.00 0.00 0.00 95 975.0
20210919121754 69 92 0.0 1.7 0.00 0.00 0.00 97 974.9
20210919120117 69 96 0.0 0.0 0.00 0.00 0.00 97 975.0
20210919114632 69 96 0.0 0.0 0.00 0.00 0.00 97 974.9
20210919113115 68 97 0.0 0.0 0.00 0.00 0.00 97 974.8
20210919111725 68 288 0.0 0.0 0.00 0.00 0.00 98 974.8
20210919110106 68 287 0.0 0.0 0.00 0.00 0.00 98 974.6
20210919104636 68 289 0.0 0.0 0.00 0.00 0.00 98 974.6
20210919103107 68 284 0.0 0.0 0.00 0.00 0.00 98 974.5
20210919101618 68 289 0.0 0.0 0.00 0.00 0.00 98 974.5
20210919100053 68 289 0.0 0.0 0.00 0.00 0.00 98 974.4
20210919094609 68 289 0.0 0.0 0.00 0.00 0.00 98 974.6
20210919093138 68 289 0.0 0.0 0.00 0.00 0.00 98 974.4
20210919091629 67 288 0.0 0.0 0.00 0.00 0.00 98 974.4
20210919090113 67 289 0.0 0.0 0.00 0.00 0.00 98 974.3
20210919084631 67 288 0.0 0.0 0.00 0.00 0.00 98 974.3
20210919083054 67 288 0.0 0.0 0.00 0.00 0.00 98 974.2
20210919081559 67 288 0.0 0.0 0.00 0.00 0.00 98 974.3
20210919080118 67 289 0.0 0.0 0.00 0.00 0.00 98 974.3
20210919074627 68 288 0.0 0.0 0.00 0.00 0.00 98 974.3
20210919073136 68 288 0.0 0.0 0.00 0.00 0.00 97 974.5
20210919071609 68 289 0.0 0.0 0.00 0.00 0.00 97 974.5
20210919070045 68 288 0.0 0.0 0.00 0.00 0.00 97 974.6
20210919064617 68 288 0.0 0.0 0.00 0.00 0.00 97 974.6
20210919063050 68 289 0.0 0.0 0.00 0.00 0.00 97 974.5
20210919061622 68 289 0.0 0.0 0.00 0.00 0.00 97 974.5
20210919060111 68 289 0.0 0.0 0.00 0.00 0.00 97 974.7
20210919054734 68 289 0.0 0.0 0.00 0.00 0.00 97 974.6
20210919053055 68 289 0.0 0.0 0.00 0.00 0.00 97 974.6